• Processing (Info)

  • MPEC 2012-V10 : 2012 VA5

    The following Minor Planet Electronic Circular may be linked-to from your own Web pages, but must not otherwise be redistributed electronically.

    A form allowing access to any MPEC is at the bottom of this page.


    Read MPEC 2012-V09 Read MPEC 2012-V11


    M.P.E.C. 2012-V10                                Issued 2012 Nov. 5, 18:40 UT
    
         The Minor Planet Electronic Circulars contain information on unusual
             minor planets and routine data on comets.  They are published
       on behalf of Commission 20 of the International Astronomical Union by the
              Minor Planet Center, Smithsonian Astrophysical Observatory,
                              Cambridge, MA 02138, U.S.A.
    
                 Prepared using the Tamkin Foundation Computer Network
    
                                  MPC@CFA.HARVARD.EDU
                URL https://www.minorplanetcenter.net/    ISSN 1523-6714
    
                                       2012 VA5
    
    Observations:
         K12V05A* C2012 11 03.12821 22 20 06.14 -11 50 44.8          21.0 VrEV010G96
         K12V05A  C2012 11 03.13513 22 20 05.85 -11 50 32.8          21.0 VrEV010G96
         K12V05A  C2012 11 03.14206 22 20 05.56 -11 50 20.7          21.4 VrEV010G96
         K12V05A  C2012 11 03.14904 22 20 05.28 -11 50 07.9          21.2 VrEV010G96
         K12V05A  C2012 11 03.26130 22 20 00.69 -11 46 48.6                rEV010G96
         K12V05A  C2012 11 03.26185 22 20 00.61 -11 46 47.5                rEV010G96
         K12V05A  C2012 11 03.26247 22 20 00.62 -11 46 46.1                rEV010G96
         K12V05A  C2012 11 03.26302 22 20 00.54 -11 46 45.6                rEV010G96
         K12V05A |C2012 11 04.07294 22 19 38.67 -11 21 51.5          20.6 VuEV010807
         K12V05A |C2012 11 04.08121 22 19 38.35 -11 21 35.5          20.6 VuEV010807
         K12V05A |C2012 11 04.08533 22 19 38.20 -11 21 28.1          20.6 VuEV010807
         K12V05A |C2012 11 04.08945 22 19 38.05 -11 21 20.6          20.4 VuEV010807
         K12V05A KC2012 11 05.03014122 19 15.92 -10 52 46.5          20.7 VrEV010H21
         K12V05A KC2012 11 05.03861922 19 15.62 -10 52 30.5          20.6 VrEV010H21
         K12V05A KC2012 11 05.04710222 19 15.36 -10 52 14.9          20.3 VrEV010H21
         K12V05A  C2012 11 05.16948 22 19 11.71 -10 48 17.8          20.7 VrEV010G96
         K12V05A  C2012 11 05.17416 22 19 11.53 -10 48 08.4          21.1 VrEV010G96
         K12V05A  C2012 11 05.17891 22 19 11.31 -10 47 59.3          20.9 VrEV010G96
         K12V05A  C2012 11 05.18362 22 19 11.17 -10 47 49.6          21.6 VrEV010G96
    
    Observer details:
    807 Cerro Tololo.  Observers T. Linder, R. Holmes, R. Sampson.  0.41-m f/11
        Ritchey-Chretien + CCD.
    G96 Mt. Lemmon Survey.  Observers A. R. Gibbs, J. A. Johnson.  Measurers
        A. Boattini, E. J. Christensen, A. R. Gibbs, A. D. Grauer, R. E. Hill,
        J. A. Johnson, R. A. Kowalski, S. M. Larson, R. H. McNaught.  1.5-m
        reflector + CCD.
    H21 Astronomical Research Observatory, Westfield.  Observer R. Holmes.
        Measurers L. Buzzi, H. Devore, S. Foglia, T. Vorobjov.  0.61-m f/4.0
        astrograph + CCD.
    
    Orbital elements:
    2012 VA5                                            PHA, Earth MOID = 0.0485 AU
    Epoch 2012 Sept. 30.0 TT = JDT 2456200.5                MPC
    M 343.97717              (2000.0)            P               Q
    n   0.23656350     Peri.   36.45894     +0.36395504     -0.92972711
    a   2.5892316      Node    32.30557     +0.82784022     +0.29530467
    e   0.6116570      Incl.    6.02261     +0.42686919     +0.22000601
    P   4.17           H   21.8           G   0.15           U   8
    Residuals in seconds of arc
    121103 G96  0.2-  0.5+    121103 G96  0.5-  0.6-    121105 H21  0.6+  0.3-
    121103 G96  0.0   0.3+    121104 807  0.5-  0.4-    121105 G96  0.5+  0.5-
    121103 G96  0.1+  0.1+    121104 807  0.4-  0.3+    121105 G96  0.3+  0.1-
    121103 G96  0.4+  0.6+    121104 807  0.2-  0.1+    121105 G96  0.4-  0.2-
    121103 G96  0.7+  0.5-    121104 807  0.1-  0.0     121105 G96  0.0   0.4+
    121103 G96  0.2-  0.4-    121105 H21  0.2-  0.4+
    121103 G96  0.3+  0.1-    121105 H21  0.1-  0.3+
    
    Ephemeris:
    2012 VA5                 a,e,i = 2.59, 0.61, 6                   q = 1.0055
    Date    TT    R. A. (2000) Decl.     Delta      r     Elong.  Phase     V
    2012 10 06    22 53 41.6 -18 51 44   0.3341  1.2826   143.1    27.9    21.2
    ...
    2012 10 21    22 31 20.4 -16 39 52   0.2770  1.1772   125.2    43.7    21.1
    ...
    2012 10 29    22 23 22.9 -14 05 16   0.2503  1.1279   116.6    51.9    21.0
    ...
    2012 11 04    22 19 41.6 -11 24 19   0.2306  1.0951   110.8    57.8    20.9
    2012 11 05    22 19 16.4 -10 53 16   0.2273  1.0900   109.9    58.8    20.9
    2012 11 06    22 18 54.6 -10 20 55   0.2240  1.0851   109.0    59.7    20.9
    ...
    2012 11 12    22 17 54.8 -06 36 44   0.2040  1.0581   104.1    65.1    20.8
    ...
    2012 11 20    22 19 51.1 +00 01 13   0.1771  1.0301    98.8    71.4    20.6
    ...
    2012 12 05    22 35 27.1 +20 32 17   0.1304  1.0058    95.2    77.3    20.1
    
    A. U. Tomatic                (C) Copyright 2012 MPC           M.P.E.C. 2012-V10
    

    Read MPEC 2012-V09 Read MPEC 2012-V11


    MPEC number:

    Enter an MPEC number in one of the following forms:

    • 1997-B01 (the full form)
    • J97B01 (the packed version of the full form)
    • B01 (the abbreviated form)